Погода в Осинове Гае

Россия / Саратовская область     51°06′19″N   48°32′43″E
темп.,
°C
ветер,
м/с
пор.,
м/с
влажн.,
%
обл.,
%
осадки,
мм/ч
давл.,
гПа
погр.,
м
12 мая, ср
ср1201:00+12св3692100 0.0 1023269
04:00+14всв6128895 0.4 1022512
07:00+15в81675100 0.1 1020731
10:00+16вюв81571100 0.1 1021682
13:00+20вюв10135982 0.0 10211474
16:00+20юв51164100 0.1 1021480
19:00+19вюв61266100 0.1 1021414
22:00+18в614655 0.1 1020332
13 мая, чт
чт1301:00+17в7156035 0.0 1019360
04:00+15вюв71676100 0.6 1019371
07:00+16вюв61475100 0.7 1019369
10:00+21юв9145294 0.7 1019838
13:00+23юв81446100 0.0 10201428
16:00+27юв81436100 0.1 10192179
19:00+24юв612461 0.1 1019368
22:00+19юв612560 0.1 1020176
14 мая, пт
пт1401:00+17юв48561 0.0 1020107
04:00+16юв48525 0.0 1021109
07:00+18юв513475 0.0 1021253
10:00+24ююв813325 0.0 1022619
13:00+28ююв911265 0.0 10221178
16:00+28ююв89255 0.0 10211427
19:00+25юв51037100 0.0 1021237
22:00+20юв511470 0.0 1021163
15 мая, сб
сб1501:00+18юв410460 0.0 1021125
04:00+17юв46405 0.0 102176
07:00+18юв48455 0.0 1022163
10:00+25юв69301 0.0 1021493
13:00+30ююв69250 0.0 10212346
16:00+30ююв78251 0.0 10192877
19:00+27юв510380 0.0 1019284
22:00+21юв49450 0.0 1019122
16 мая, вс
вс1601:00+19юв49470 0.0 1018133
04:00+18юв45480 0.0 101859
07:00+20юв37500 0.0 1018150
10:00+27юв57350 0.0 1018486
13:00+31ююв68275 0.0 10173081
16:00+31ююв662336 0.0 10163359
19:00+28юв46356 0.0 1016120
22:00+23юв454599 0.0 101676